Volver al catálogo

STARLINK-35032

ActivoComunicacionesSSO
NORAD 65382·PAYLOAD·🇺🇸 United States

Lanzado Aug 30, 2025 desde Vandenberg Space Force Base

Loading…

Próximos Pases (próximas 24 horas)

TLE

ActualizadoSource: CelesTrak SupGP

Época: Sep 14, 2026, 20:39 UTC

1 65382C 25191D   26257.86090278 -.00026210  00000+0 -81369-3 0  2573
2 65382  97.2842 123.9887 0001879  90.7846 354.1540 15.33449394    13

Sigue STARLINK-35032 en tiempo real con AllMySat

Download on the App Store